Location: Stigler
(35.2540°N, 95.1230°W)
Time: 11:29:31
(UTC-05:00)

Daily predictions for brighter satellites

Satellite Brightness Start Highest point End
(mag) Time Altitude Azimuth Time Altitude Azimuth Time Altitude Azimuth
NOSS 2-2 (C) 4.5 20:47:36 10° SW 20:51:33 54° NW 20:56:02 10° NNE
SL-27 R/B 3.1 20:55:14 10° N 20:58:41 40° ENE 21:02:02 10° SE
CZ-4 DEB 3.6 20:57:13 10° SE 21:00:05 31° ENE 21:02:56 10° N
CZ-2D R/B 3.3 20:59:05 10° S 21:02:53 84° WSW 21:06:43 10° NNW
GPS 2-05 Rocket1 2.9 20:59:15 10° WSW 21:02:59 74° SSE 21:06:39 10° E
CZ-4B DEB 4.3 21:00:14 10° S 21:03:19 38° W 21:06:24 10° NNW
Meteor 1-10 Rocket 4.4 21:00:51 10° N 21:06:34 58° E 21:12:08 10° SSE
Cosmos 2154 Rocket 4.5 21:02:18 10° SSE 21:07:58 39° E 21:13:37 10° NNE
ERBS 3.0 21:06:12 10° NW 21:09:35 52° SW 21:12:56 10° SSE
YAOGAN 11 4.4 21:07:51 10° SSE 21:12:13 52° ENE 21:16:40 10° N
Envisat 4.0 21:09:02 10° SE 21:13:23 30° ENE 21:17:47 10° N
SEDSat Delta rocket 4.1 21:10:13 10° SW 21:13:53 25° SSE 21:16:42 13° ESE
Cosmos 1862 4.2 21:10:25 10° SSE 21:14:00 30° E 21:17:36 10° NNE
Cosmos 2184 Rocket 4.0 21:08:02 10° S 21:14:11 88° W 21:20:24 10° N
H-2A R/B 3.2 21:12:33 12° ESE 21:15:44 26° ENE 21:19:15 10° NNE
CZ-3C R/B 4.0 20:27:39 10° WSW 21:16:24 35° S 21:23:57 13° SE
COSMOS 2487 4.2 21:19:08 10° NNE 21:21:49 19° ENE 21:23:26 15° E
Cosmos 1606 3.5 21:18:33 10° NNE 21:22:12 35° E 21:24:56 15° SE
Cosmos 1892 4.2 21:21:07 10° SSW 21:24:43 39° W 21:28:22 10° N
ALOS 3.3 21:22:20 10° S 21:26:49 46° W 21:31:19 10° NNW
ERS-1 Rocket 3.0 21:22:56 10° SSE 21:27:54 64° ENE 21:32:53 10° N
SJ-11-01 4.3 21:26:52 10° SSE 21:31:36 72° ENE 21:36:21 10° N
Meteor 1-27 Rocket 3.8 21:27:53 10° N 21:33:20 56° E 21:37:56 14° SSE
Cosmos 407 Rocket 3.5 21:28:46 10° NNW 21:34:04 80° ENE 21:38:45 14° SSE
Cosmos 1140 Rocket 4.5 21:32:30 10° N 21:36:59 30° ENE 21:39:36 19° ESE
H-2A R/B 4.4 21:34:16 10° SSW 21:37:36 32° W 21:40:58 10° NNW
Okean 3 4.2 21:35:19 10° NNE 21:39:15 35° E 21:41:10 23° SE
USA 186 4.0 21:38:58 10° SSW 21:41:33 24° W 21:44:16 10° NW
Cosmos 1782 3.1 21:37:59 10° NNW 21:42:00 67° W 21:46:00 10° S
Cosmos 1452 Rocket 3.6 21:37:56 10° SSW 21:43:11 79° WNW 21:48:29 10° NNE
H-2A R/B 4.2 21:42:52 10° ENE 21:43:55 11° ENE 21:44:59 10° NE
Cosmos 1674 Rocket 4.0 21:41:07 10° NNW 21:45:31 63° W 21:49:53 10° S
Okean 2 Rocket 3.4 21:45:11 20° SSE 21:47:50 44° E 21:52:03 10° NNE
ARGOS 4.5 21:46:31 19° E 21:48:36 24° ENE 21:52:46 10° NNE
CZ-4B R/B 4.3 21:45:12 10° NE 21:49:18 27° E 21:50:13 25° ESE
ATLAS 5 CENTAUR R/B 3.6 21:47:12 10° NW 21:52:53 39° WSW 21:58:51 10° S
Cosmos 1184 Rocket 2.7 21:52:57 23° S 21:54:53 78° E 21:58:14 10° N
Cosmos 1939 Rocket 2.8 21:52:48 21° S 21:55:17 82° W 21:59:13 10° NNW
OAO 3 Rocket 3.3 21:50:44 10° WSW 21:55:33 54° SSE 21:58:14 25° E
ISS -0.9 21:53:24 10° W 21:56:09 25° NW 21:58:55 10° NNE
YAOGAN 6 3.5 21:56:01 29° E 21:56:21 30° ENE 21:59:28 10° NNE
Atlas Centaur 2 2.1 21:54:32 10° WSW 21:57:36 26° SSW 21:57:58 26° S
Cosmos 1242 Rocket 3.4 21:54:16 10° NNE 21:57:39 33° ENE 21:58:02 32° E
Cosmos 1408 2.6 21:55:09 13° S 21:58:19 79° W 22:01:59 10° N
Cosmos 1782 Rocket 3.5 21:54:44 15° S 21:58:24 76° E 22:02:53 10° N
SPOT 1/Viking Rocket 4.4 21:57:07 25° ESE 21:58:59 33° ENE 22:03:36 10° N
Meteor 2-13 Rocket 4.5 21:55:44 14° S 22:01:01 62° E 22:07:05 10° NNE
Cosmos 2218 Rocket 4.5 22:00:21 25° SE 22:03:26 42° E 22:09:23 10° NNE
Nadezhda 3 Rocket 4.0 21:58:17 10° N 22:04:41 86° W 22:09:52 16° S
CENTAUR R/B 4.4 21:58:36 10° NW 22:05:38 34° WSW 22:12:50 10° S
Cosmos 1238 Rocket 2.5 22:02:24 10° N 22:05:52 88° E 22:07:26 35° S
SPOT 5 3.0 22:04:32 28° SSE 22:07:23 74° ENE 22:12:44 10° N
Cosmos 1825 2.9 22:05:44 10° SSW 22:09:23 54° W 22:13:08 10° N
MetOp-A 4.1 22:13:08 33° SSE 22:15:33 74° ENE 22:20:54 10° N
Cosmos 1833 Rocket 3.8 22:11:15 10° N 22:16:01 27° ENE 22:17:28 24° E
Cosmos 2278 Rocket 3.1 22:11:09 10° SW 22:16:39 51° WNW 22:22:10 10° N
Cosmos 1975 Rocket 2.9 22:12:18 10° N 22:16:39 85° E 22:18:00 44° S
DNEPR-1 R/B 4.0 22:13:00 10° NNW 22:18:06 55° ENE 22:19:11 44° ESE
Cosmos 1850 Rocket 4.2 22:13:30 10° N 22:18:43 55° ENE 22:20:15 41° ESE
UNK 4.3 22:13:12 10° NNE 22:19:22 77° ESE 22:23:43 19° S
Cosmos 1174 4.4 22:18:46 10° NW 22:21:32 31° WSW 22:21:43 31° WSW
COS B Rocket 4.4 22:19:52 10° NNW 22:23:31 38° W 22:25:27 21° SW
Cosmos 1954 Rocket 4.4 22:19:25 10° NNW 22:24:34 61° WSW 22:27:04 30° S
USA 229 DEB 4.4 22:24:03 10° NNW 22:30:49 44° NE 22:33:32 32° E
USA 229 4.4 22:24:09 10° NNW 22:30:56 44° NE 22:33:38 32° E
BREEZE-M DEB (TANK) 3.1 22:27:47 10° NW 22:37:26 60° NNE 22:38:18 48° ENE
SL-8 Rocket 4.0 22:34:24 24° S 22:38:27 82° W 22:44:44 10° N
Meteor 1-14 Rocket 4.2 22:36:23 31° S 22:39:17 85° W 22:44:54 10° N
Cosmos 1741 Rocket 3.9 22:34:30 10° NNW 22:39:45 85° ENE 22:40:44 60° SSE
Cosmos 2082 Rocket 2.4 22:34:15 10° NNW 22:39:50 56° ENE 22:40:49 49° ESE
GPS 2-05 Rocket1 3.6 22:37:37 10° W 22:40:33 53° W 22:40:33 53° W
USA 245 3.5 22:42:27 60° NNW 22:42:27 60° NNW 22:45:46 10° NNW
Cosmos 1331 Rocket 4.5 22:43:57 42° ENE 22:43:57 42° ENE 22:48:01 10° NNE
Timation 2 Rocket 3.9 22:41:38 10° NNW 22:47:36 76° WSW 22:49:13 50° S
Intercosmos 25 4.4 22:47:34 32° WSW 22:48:16 35° W 22:51:15 10° NNW
Cosmos 1110 Rocket 3.9 22:50:53 64° E 22:50:53 64° E 22:55:53 10° NNE
H-2A R/B 4.1 22:49:42 16° SW 22:51:40 22° W 22:55:00 10° NW
Cosmos 2297 4.5 22:47:29 10° SW 22:53:00 51° WNW 22:58:36 10° N
Cosmos 2151 Rocket 3.7 22:53:44 69° WSW 22:54:03 73° W 22:58:35 10° N
NOAA 11 4.2 22:57:39 60° S 22:58:37 78° WSW 23:04:08 10° NNW
CZ-4 R/B 3.9 22:57:39 10° N 23:02:17 68° WNW 23:02:42 64° WSW
OAO 1 Rocket 4.3 22:59:57 10° W 23:05:03 82° WSW 23:05:03 82° WSW
Cosmos 614 Rocket 4.2 23:01:22 10° NNW 23:06:20 57° WSW 23:06:40 56° WSW
Okean 1 Rocket 4.3 23:15:49 34° NNE 23:15:49 34° NNE 23:18:28 10° NNE
Landsat 7 4.1 23:19:26 65° NW 23:19:26 65° NW 23:23:35 10° NNW
H-2A R/B 2.1 23:22:52 80° NNW 23:22:52 80° NNW 23:27:55 10° NNW
Cosmos 2369 Rocket 3.9 23:26:49 21° NE 23:26:49 21° NE 23:28:59 10° NE
USA 234 3.1 23:21:48 10° NE 23:28:23 86° SE 23:30:13 51° SW
ARGOS 4.1 23:28:02 37° WSW 23:28:34 38° W 23:33:32 10° NNW
Terra 2.5 23:35:40 51° NNW 23:35:40 51° NNW 23:39:18 10° NNW
CZ-3 Stage 3 4.0 22:43:29 10° W 23:35:33 66° SSW 23:37:00 58° SSE
